Weather History for K4A9 - January, 2013

Change the Weather History Date:

Sunday, January 6, 2013

  Actual Average (KRMG) Record (KRMG)
Temperature  
Mean Temperature 38 °F 41 °F  
Max Temperature 46 °F 51 °F 69 °F (1998)
Min Temperature 30 °F 30 °F 11 °F (2014)
Degree Days  
Heating Degree Days 27 24  
Month to date heating degree days 144  
Since 1 July heating degree days 1444  
Moisture  
Dew Point 34 °F    
Average Humidity 82    
Maximum Humidity 93    
Minimum Humidity 57    
Precipitation  
Precipitation 0.04 in 0.12 in 4.77 in (2009)
Month to date precipitation 0.63  
Year to date precipitation 0.63  
Sea Level Pressure  
Sea Level Pressure 30.23 in    
Wind  
Wind Speed 1 mph (West)    
Max Wind Speed 9 mph    
Max Gust Speed 16 mph    
Visibility 7 miles    
Events Rain    
T = Trace of Precipitation, MM = Missing Value Source: NWS Daily Summary

Daily Weather History Graph

Daily Weather History Graph

Search for Another Location

Airport or City:

Trip Planner

Search our weather history database for the weather conditions in past years. The results will help you decide how hot, cold, wet, or windy it might be!

Date:

Astronomy

Jan. 06, 2013 Rise Set
Actual Time 6:50 AM CST 4:47 PM CST
Civil Twilight 6:22 AM CST 5:15 PM CST
Nautical Twilight 5:51 AM CST 5:46 PM CST
Astronomical Twilight 5:20 AM CST 6:17 PM CST
Moon 1:09 AM CST (1/6) 12:10 PM CST (1/6)
Length of Visible Light 10h 53m
Length of Day
9h 57m
Waning Crescent, 33% of the Moon is Illuminated
Jan 6
Waning Crescent
Jan 11
New
Jan 18
First Quarter
Jan 26
Full
Feb 3
Last Quarter

Hourly Weather History & Observations

Time (CST) Temp. Windchill Dew Point Humidity Pressure Visibility Wind Dir Wind Speed Gust Speed Precip Events Conditions
12:15 AM 37.4 °F - 35.6 °F 93% 30.26 in 3.0 mi Calm Calm - 0.01 in Rain Light Rain
12:35 AM 37.4 °F - 35.6 °F 93% 30.26 in 2.5 mi Calm Calm - 0.02 in   Drizzle
12:55 AM 37.4 °F - 35.6 °F 93% 30.26 in 3.0 mi Calm Calm - 0.02 in Rain Light Rain
1:15 AM 37.4 °F - 35.6 °F 93% 30.26 in 2.5 mi Calm Calm - 0.01 in   Drizzle
1:35 AM 37.4 °F - 35.6 °F 93% 30.24 in 2.5 mi Calm Calm - 0.01 in   Overcast
1:55 AM 37.4 °F - 35.6 °F 93% 30.24 in 4.0 mi Calm Calm - 0.02 in   Overcast
2:15 AM 37.4 °F - 35.6 °F 93% 30.24 in 3.0 mi Calm Calm - N/A   Overcast
2:35 AM 37.4 °F - 35.6 °F 93% 30.23 in 3.0 mi Calm Calm - N/A   Overcast
2:55 AM 37.4 °F - 35.6 °F 93% 30.23 in 3.0 mi Calm Calm - N/A   Overcast
3:15 AM 37.4 °F - 35.6 °F 93% 30.23 in 2.0 mi Calm Calm - N/A   Overcast
3:35 AM 37.4 °F - 35.6 °F 93% 30.22 in 2.0 mi Calm Calm - N/A   Overcast
3:55 AM 37.4 °F - 35.6 °F 93% 30.22 in 2.5 mi Calm Calm - N/A   Overcast
4:15 AM 37.4 °F - 35.6 °F 93% 30.22 in 2.5 mi Calm Calm - N/A   Overcast
4:35 AM 37.4 °F - 35.6 °F 93% 30.22 in 2.0 mi Calm Calm - N/A   Overcast
4:55 AM 37.4 °F - 35.6 °F 93% 30.22 in 3.0 mi Calm Calm - N/A   Overcast
5:15 AM 37.4 °F - 35.6 °F 93% 30.23 in 3.0 mi Calm Calm - N/A   Overcast
5:35 AM 37.4 °F - 35.6 °F 93% 30.23 in 3.0 mi Calm Calm - N/A   Overcast
5:55 AM 37.4 °F - 35.6 °F 93% 30.23 in 3.0 mi Calm Calm - N/A   Overcast
6:35 AM 37.4 °F - 35.6 °F 93% 30.23 in 2.0 mi Calm Calm - N/A   Overcast
6:55 AM 37.4 °F - 35.6 °F 93% 30.24 in 2.0 mi Calm Calm - N/A   Overcast
7:15 AM 37.4 °F - 35.6 °F 93% 30.24 in 3.0 mi Calm Calm - N/A   Overcast
7:35 AM 37.4 °F - 35.6 °F 93% 30.24 in 5.0 mi Calm Calm - N/A   Overcast
7:55 AM 39.2 °F - 35.6 °F 87% 30.24 in 2.5 mi Calm Calm - N/A   Overcast
8:15 AM 39.2 °F - 37.4 °F 93% 30.24 in 2.5 mi Calm Calm - N/A   Overcast
8:35 AM 39.2 °F - 37.4 °F 93% 30.25 in 3.0 mi Calm Calm - N/A   Overcast
8:55 AM 41.0 °F - 37.4 °F 87% 30.26 in 5.0 mi Calm Calm - N/A   Overcast
9:15 AM 41.0 °F - 37.4 °F 87% 30.26 in 7.0 mi Calm Calm - N/A   Overcast
9:35 AM 41.0 °F - 37.4 °F 87% 30.26 in 10.0 mi Calm Calm - N/A   Overcast
9:55 AM 41.0 °F - 37.4 °F 87% 30.26 in 10.0 mi Calm Calm - N/A   Overcast
10:15 AM 41.0 °F - 37.4 °F 87% 30.26 in 10.0 mi Calm Calm - N/A   Overcast
10:35 AM 42.8 °F - 35.6 °F 76% 30.25 in 10.0 mi Calm Calm - N/A   Overcast
10:55 AM 42.8 °F - 35.6 °F 76% 30.24 in 10.0 mi Calm Calm - N/A   Overcast
11:15 AM 42.8 °F 41.1 °F 35.6 °F 76% 30.23 in 10.0 mi WNW 3.5 mph - N/A   Overcast
11:35 AM 42.8 °F 38.6 °F 35.6 °F 76% 30.23 in 10.0 mi West 6.9 mph - N/A   Overcast
11:55 AM 42.8 °F 38.6 °F 33.8 °F 70% 30.21 in 10.0 mi SW 6.9 mph - N/A   Overcast
12:15 PM 42.8 °F 39.3 °F 33.8 °F 70% 30.20 in 10.0 mi West 5.8 mph - N/A   Mostly Cloudy
12:35 PM 42.8 °F 38.0 °F 33.8 °F 70% 30.20 in 10.0 mi NW 8.1 mph - N/A   Mostly Cloudy
12:55 PM 44.6 °F 40.7 °F 33.8 °F 66% 30.19 in 10.0 mi West 6.9 mph - N/A   Overcast
1:15 PM 44.6 °F 39.7 °F 33.8 °F 66% 30.19 in 10.0 mi WNW 9.2 mph - N/A   Scattered Clouds
1:35 PM 42.8 °F 38.6 °F 33.8 °F 70% 30.19 in 10.0 mi WNW 6.9 mph - N/A   Scattered Clouds
1:55 PM 44.6 °F 40.7 °F 33.8 °F 66% 30.19 in 10.0 mi West 6.9 mph - N/A   Mostly Cloudy
2:15 PM 46.4 °F 41.9 °F 33.8 °F 62% 30.19 in 10.0 mi West 9.2 mph - N/A   Overcast
2:35 PM 46.4 °F 41.9 °F 33.8 °F 62% 30.18 in 10.0 mi West 9.2 mph - N/A   Mostly Cloudy
2:55 PM 46.4 °F 43.5 °F 32.0 °F 57% 30.18 in 10.0 mi WNW 5.8 mph 16.1 mph N/A   Scattered Clouds
3:15 PM 44.6 °F 42.2 °F 33.8 °F 66% 30.18 in 10.0 mi WNW 4.6 mph - N/A   Scattered Clouds
3:35 PM 46.4 °F 43.5 °F 33.8 °F 62% 30.18 in 10.0 mi WSW 5.8 mph - N/A   Clear
3:55 PM 46.4 °F 42.4 °F 33.8 °F 62% 30.18 in 10.0 mi WSW 8.1 mph - N/A   Clear
4:15 PM 46.4 °F 45.2 °F 32.0 °F 57% 30.18 in 10.0 mi WSW 3.5 mph - N/A   Clear
4:35 PM 44.6 °F - 32.0 °F 61% 30.19 in 10.0 mi Calm Calm - N/A   Clear
4:55 PM 42.8 °F 41.1 °F 32.0 °F 66% 30.20 in 10.0 mi West 3.5 mph - N/A   Clear
5:15 PM 42.8 °F - 32.0 °F 66% 30.21 in 10.0 mi Calm Calm - N/A   Clear
5:35 PM 41.0 °F 39.0 °F 32.0 °F 70% 30.22 in 10.0 mi West 3.5 mph - N/A   Clear
5:55 PM 41.0 °F - 32.0 °F 70% 30.22 in 10.0 mi Calm Calm - N/A   Clear
6:15 PM 41.0 °F - 32.0 °F 70% 30.23 in 10.0 mi Calm Calm - N/A   Clear
6:35 PM 41.0 °F 39.0 °F 32.0 °F 70% 30.24 in 10.0 mi West 3.5 mph - N/A   Clear
6:55 PM 41.0 °F - 32.0 °F 70% 30.24 in 10.0 mi Calm Calm - N/A   Clear
7:15 PM 35.6 °F - 32.0 °F 87% 30.25 in 10.0 mi Calm Calm - N/A   Clear
7:35 PM 35.6 °F - 32.0 °F 87% 30.25 in 10.0 mi Calm Calm - N/A   Clear
7:55 PM 33.8 °F - 32.0 °F 93% 30.27 in 10.0 mi Calm Calm - N/A   Clear
8:15 PM 35.6 °F - 32.0 °F 87% 30.27 in 10.0 mi Calm Calm - N/A   Clear
8:35 PM 33.8 °F - 32.0 °F 93% 30.28 in 7.0 mi Calm Calm - N/A   Clear
8:55 PM 33.8 °F - 32.0 °F 93% 30.29 in 7.0 mi Calm Calm - N/A   Clear
9:15 PM 32.0 °F 27.5 °F 30.2 °F 93% 30.30 in 7.0 mi ESE 4.6 mph - N/A   Clear
9:55 PM 32.0 °F - 30.2 °F 93% 30.31 in 7.0 mi Calm Calm - N/A   Clear
10:35 PM 30.2 °F - 28.4 °F 93% 30.30 in 3.0 mi Calm Calm - N/A   Clear
10:55 PM 30.2 °F - 28.4 °F 93% 30.29 in 4.0 mi Calm Calm - N/A   Clear
11:35 PM 30.2 °F - 28.4 °F 93% 30.30 in 5.0 mi Calm Calm - N/A   Clear
11:55 PM 30.2 °F - 28.4 °F 93% 30.30 in 5.0 mi Calm Calm - N/A   Clear